Regional Weather Roundup
Issued by NWS

Home | Current Version | Previous Version | Graphics & Text | Print | Product List | Glossary On
Versions: 1 2 3 4 5 6 7 8 9 10 11 12 13 14 15 16 17 18 19 20 21 22 23 24 25 26 27 28 29 30 31 32 33 34 35 36 37 38 39 40 41 42 43 44 45 46 47 48 49 50
000
ASUS43 KDMX 051007
RWRIA

WEATHER ROUNDUP FOR IOWA
NATIONAL WEATHER SERVICE DES MOINES IA
500 AM CDT SAT SEP 05 2015

NOTE: "FAIR" INDICATES FEW OR NO CLOUDS BELOW 12,000 FEET WITH NO
SIGNIFICANT WEATHER AND/OR OBSTRUCTIONS TO VISIBILITY.

* - THESE STATIONS ARE NOT NWS STATIONS...THUS NOT UNDER NWS
QUALITY CONTROL.  THEY ALSO DO NOT REPORT WEATHER SUCH
AS PRECIPITATION OR FOG.

IAZ001>003-012>014-020>022-031>034-043>046-051100-
   NORTHWEST IOWA

CITY           SKY/WX    TMP DP  RH WIND       PRES   REMARKS
CARROLL *      CLEAR     70  70 100 S8        29.97R
CHEROKEE *     MOCLDY    75  70  83 S10G16    29.92S
DENISON *      MOCLDY    73  70  88 S8        29.95R
LE MARS *      CLEAR     75  70  83 S13G20    29.89R
ORANGE CITY *  CLEAR     72  68  88 SE8       29.90R
SHELDON *      PTCLDY    73  70  88 S13       29.89R
SIOUX CITY     PTCLDY    73  68  84 SE8       29.88R
SPENCER        CLOUDY    76  68  76 S10       29.93S HAZE
STORM LAKE *   MOCLDY    72  70  94 SE9       29.96R
$$

IAZ055>058-069>071-079>083-090>094-051100-
   SOUTHWEST IOWA

CITY           SKY/WX    TMP DP  RH WIND       PRES   REMARKS
ATLANTIC *     CLEAR     72  70  94 S7        29.97S
AUDUBON *      CLEAR     72  68  88 S5        29.98S
CLARINDA *     CLEAR     70  70 100 S6        29.99S
COUNCIL BLFS *   N/A     72  70  94 S10       29.95R
CRESTON *      CLEAR     70  68  94 S8        30.02S
LAMONI         CLEAR     72  68  87 S5        30.01R
RED OAK *      CLEAR     72  70  94 S6        29.96S
SHENANDOAH *   CLEAR     72  70  94 SE6       29.96S
$$

IAZ047>049-059>061-072>074-084-051100-
   CENTRAL IOWA

CITY           SKY/WX    TMP DP  RH WIND       PRES   REMARKS
AMES           PTCLDY    70  69  97 SE6       29.98S FOG
ANKENY *       CLEAR     73  70  88 S7        29.98S
CHARITON *     CLEAR     72  68  88 S6        30.02R
DES MOINES     PTCLDY    74  67  78 S6        29.99R
GRINNELL*      CLEAR     72  68  88 SE5       30.03R
KNOXVILLE *    CLEAR     72  68  88 S5        30.00R
MARSHALLTOWN   CLEAR     71  68  90 SE6       30.01R
PELLA *        PTCLDY    72  72 100 SE5       30.02S
PERRY *          N/A     72  70  94 S5        29.98S
$$

IAZ004>006-015-016-023>025-035-036-051100-
   NORTH CENTRAL IOWA

CITY           SKY/WX    TMP DP  RH WIND       PRES   REMARKS
ALGONA *       CLEAR     73  70  88 SE9       29.97R
CLARION *      CLEAR     72  68  88 SE9       29.98S
ESTHERVILLE    TSTM      71  70  96 S9        29.94S
FORT DODGE *   MOCLDY    73  66  78 S8        29.98S
MASON CITY     PTCLDY    71  69  93 S9        30.00S
FOREST CITY *    N/A     70  70 100 SE7       29.99R
IOWA FALLS *     N/A     72  68  88 SE6       30.01S
$$

IAZ007>011-017>019-026>030-037>042-050>054-066-051100-
   NORTHEAST IOWA

CITY           SKY/WX    TMP DP  RH WIND       PRES   REMARKS
CEDAR RAPIDS   PTCLDY    72  71  97 S5        30.02R
CHARLES CITY * PTCLDY    73  73 100 SE7       30.01S
CLINTON *      CLOUDY    72  70  94 E5        30.07R
DECORAH *      PTCLDY    72  72 100 E5        30.02S
DUBUQUE        CLOUDY    74  71  91 E3        30.06R
MONTICELLO *   PTCLDY    73  72  94 CALM      30.03R
OELWEIN *      MOCLDY    73  72  94 SE6       30.03S
WATERLOO       PTCLDY    74  69  85 S5        30.00R
$$

IAZ064-065-067-068-078-051100-
   EAST CENTRAL IOWA

CITY           SKY/WX    TMP DP  RH WIND       PRES   REMARKS
DAVENPORT      CLOUDY    73  70  90 CALM      30.04R
IOWA CITY      PTCLDY    72  70  93 CALM      30.04R
MT. PLEASANT * PTCLDY    73  68  84 S3        30.03S
MUSCATINE *    CLEAR     72  70  94 CALM      30.03R
QUAD CITIES    CLOUDY    74  69  85 SE6       30.04R
$$

IAZ062-063-075>077-085>089-095>099-051100-
   SOUTHEAST IOWA

CITY           SKY/WX    TMP DP  RH WIND       PRES   REMARKS
BURLINGTON     MOCLDY    73  70  90 S5        30.03R
FAIRFIELD *    CLEAR     72  68  88 S5        30.03S
FORT MADISON * CLEAR     73  70  88 S6        30.04R
KEOKUK *       CLEAR     73  70  88 SW5       30.03R
OSKALOOSA *      N/A     70  68  94 S5        30.03R
CENTERVILLE *    N/A     68  66  94 SE3       30.04R
OTTUMWA        CLEAR     70  69  97 S7        30.01R
WASHINGTON *     N/A    N/A N/A N/A MISG        N/A
$$

ABBREVIATIONS USED IN REMARKS
   TC - TEMPERATURES IN CELSIUS
  WCI - WIND CHILL INDEX
   HX - HEAT INDEX
  VSB - VISIBILITY
$$




USA.gov is the U.S. government's official web portal to all federal, state and local government web resources and services.